Time,TemperatureF,DewpointF,PressureIn,WindDirection,WindDirectionDegrees,WindSpeedMPH,WindSpeedGustMPH,Humidity,HourlyPrecipIn,Conditions,Clouds,dailyrainin,SoftwareType,DateUTC
2015-05-30 00:02:00,70.7,68.9,30.04,South,173,0.0,0.0,94,0.00,,,0.00,Wunderground v.1.15,2015-05-30 05:02:00,
2015-05-30 00:08:00,70.5,68.7,30.04,South,173,0.0,0.0,94,0.00,,,0.00,Wunderground v.1.15,2015-05-30 05:08:00,
2015-05-30 00:14:00,70.3,68.5,30.04,South,173,0.0,0.0,94,0.00,,,0.00,Wunderground v.1.15,2015-05-30 05:14:00,
2015-05-30 00:20:00,70.2,68.4,30.04,South,173,0.0,0.0,94,0.00,,,0.00,Wunderground v.1.15,2015-05-30 05:20:00,
2015-05-30 00:26:00,70.0,68.5,30.04,South,173,0.0,0.0,95,0.00,,,0.00,Wunderground v.1.15,2015-05-30 05:26:00,
2015-05-30 00:32:00,69.9,68.4,30.04,South,173,0.0,0.0,95,0.00,,,0.00,Wunderground v.1.15,2015-05-30 05:32:00,
2015-05-30 00:38:00,69.7,68.2,30.04,South,173,0.0,0.0,95,0.00,,,0.00,Wunderground v.1.15,2015-05-30 05:38:00,
2015-05-30 00:44:00,69.6,68.1,30.04,South,173,0.0,0.0,95,0.00,,,0.00,Wunderground v.1.15,2015-05-30 05:44:00,
2015-05-30 00:50:00,69.5,68.0,30.04,South,173,0.0,0.0,95,0.00,,,0.00,Wunderground v.1.15,2015-05-30 05:50:00,
2015-05-30 00:56:00,69.3,67.8,30.04,South,173,0.0,0.0,95,0.00,,,0.00,Wunderground v.1.15,2015-05-30 05:56:00,
2015-05-30 01:01:00,69.1,67.6,30.04,South,173,0.0,0.0,95,0.00,,,0.00,Wunderground v.1.15,2015-05-30 06:01:00,
2015-05-30 01:07:00,69.0,67.5,30.03,South,173,0.0,0.0,95,0.00,,,0.00,Wunderground v.1.15,2015-05-30 06:07:00,
2015-05-30 01:13:00,68.8,67.3,30.03,South,173,0.0,0.0,95,0.00,,,0.00,Wunderground v.1.15,2015-05-30 06:13:00,
2015-05-30 01:18:00,68.7,67.2,30.03,South,173,0.0,0.0,95,0.00,,,0.00,Wunderground v.1.15,2015-05-30 06:18:00,
2015-05-30 01:24:00,68.6,67.1,30.03,South,173,0.0,0.0,95,0.00,,,0.00,Wunderground v.1.15,2015-05-30 06:24:00,
2015-05-30 01:30:00,68.5,67.3,30.03,South,173,0.0,0.0,96,0.00,,,0.00,Wunderground v.1.15,2015-05-30 06:30:00,
2015-05-30 01:35:00,68.4,67.2,30.03,South,173,0.0,0.0,96,0.00,,,0.00,Wunderground v.1.15,2015-05-30 06:35:00,
2015-05-30 01:40:00,68.3,67.1,30.03,South,173,0.0,0.0,96,0.00,,,0.00,Wunderground v.1.15,2015-05-30 06:40:00,
2015-05-30 01:46:00,68.1,66.6,30.03,South,173,0.0,0.0,95,0.00,,,0.00,Wunderground v.1.15,2015-05-30 06:46:00,
2015-05-30 01:51:00,68.0,66.5,30.03,South,173,0.0,0.0,95,0.00,,,0.00,Wunderground v.1.15,2015-05-30 06:51:00,
2015-05-30 01:57:00,67.9,66.7,30.03,South,173,0.0,0.0,96,0.00,,,0.00,Wunderground v.1.15,2015-05-30 06:57:00,
2015-05-30 02:02:00,67.8,66.6,30.03,South,173,0.0,0.0,96,0.00,,,0.00,Wunderground v.1.15,2015-05-30 07:02:00,
2015-05-30 02:07:00,67.7,66.5,30.02,South,173,0.0,0.0,96,0.00,,,0.00,Wunderground v.1.15,2015-05-30 07:07:00,
2015-05-30 02:12:00,67.6,66.4,30.02,South,173,0.0,0.0,96,0.00,,,0.00,Wunderground v.1.15,2015-05-30 07:12:00,
2015-05-30 02:17:00,67.5,66.0,30.02,South,173,0.0,0.0,95,0.00,,,0.00,Wunderground v.1.15,2015-05-30 07:17:00,
2015-05-30 02:22:00,67.4,65.9,30.02,South,173,0.0,0.0,95,0.00,,,0.00,Wunderground v.1.15,2015-05-30 07:22:00,
2015-05-30 02:27:00,67.2,65.7,30.02,South,173,0.0,0.0,95,0.00,,,0.00,Wunderground v.1.15,2015-05-30 07:27:00,
2015-05-30 02:32:00,67.0,65.8,30.01,South,173,0.0,0.0,96,0.00,,,0.00,Wunderground v.1.15,2015-05-30 07:32:00,
2015-05-30 02:37:00,66.9,65.7,30.01,South,173,0.0,0.0,96,0.00,,,0.00,Wunderground v.1.15,2015-05-30 07:37:00,
2015-05-30 02:42:00,66.8,65.6,30.01,South,173,0.0,0.0,96,0.00,,,0.00,Wunderground v.1.15,2015-05-30 07:42:00,
2015-05-30 02:47:00,66.7,65.5,30.01,South,173,0.0,0.0,96,0.00,,,0.00,Wunderground v.1.15,2015-05-30 07:47:00,
2015-05-30 02:52:00,66.6,65.4,30.01,South,173,0.0,0.0,96,0.00,,,0.00,Wunderground v.1.15,2015-05-30 07:52:00,
2015-05-30 02:58:00,66.5,65.3,30.01,South,173,0.0,0.0,96,0.00,,,0.00,Wunderground v.1.15,2015-05-30 07:58:00,
2015-05-30 03:03:00,66.4,65.2,30.01,South,173,0.0,0.0,96,0.00,,,0.00,Wunderground v.1.15,2015-05-30 08:03:00,
2015-05-30 03:08:00,66.3,65.1,30.02,South,173,0.0,0.0,96,0.00,,,0.00,Wunderground v.1.15,2015-05-30 08:08:00,
2015-05-30 03:13:00,66.2,65.0,30.02,South,173,0.0,0.0,96,0.00,,,0.00,Wunderground v.1.15,2015-05-30 08:13:00,
2015-05-30 03:18:00,66.1,64.9,30.02,South,173,0.0,0.0,96,0.00,,,0.00,Wunderground v.1.15,2015-05-30 08:18:00,
2015-05-30 03:23:00,66.0,64.8,30.02,South,173,0.0,0.0,96,0.00,,,0.00,Wunderground v.1.15,2015-05-30 08:23:00,
2015-05-30 03:28:00,65.9,64.7,30.02,South,173,0.0,0.0,96,0.00,,,0.00,Wunderground v.1.15,2015-05-30 08:28:00,
2015-05-30 03:33:00,65.8,64.9,30.02,South,173,0.0,0.0,97,0.00,,,0.00,Wunderground v.1.15,2015-05-30 08:33:00,
2015-05-30 03:38:00,65.7,64.8,30.02,South,173,0.0,0.0,97,0.00,,,0.00,Wunderground v.1.15,2015-05-30 08:38:00,
2015-05-30 03:43:00,65.7,64.8,30.02,South,173,0.0,0.0,97,0.00,,,0.00,Wunderground v.1.15,2015-05-30 08:43:00,
2015-05-30 03:48:00,65.6,64.7,30.02,South,173,0.0,0.0,97,0.00,,,0.00,Wunderground v.1.15,2015-05-30 08:48:00,
2015-05-30 03:53:00,65.6,64.7,30.02,South,173,0.0,0.0,97,0.00,,,0.00,Wunderground v.1.15,2015-05-30 08:53:00,
2015-05-30 03:58:00,65.6,64.7,30.02,South,173,0.0,0.0,97,0.00,,,0.00,Wunderground v.1.15,2015-05-30 08:58:00,
2015-05-30 04:03:00,65.7,64.8,30.02,South,173,0.0,0.0,97,0.00,,,0.00,Wunderground v.1.15,2015-05-30 09:03:00,
2015-05-30 04:08:00,65.6,64.7,30.02,South,173,0.0,0.0,97,0.00,,,0.00,Wunderground v.1.15,2015-05-30 09:08:00,
2015-05-30 04:14:00,65.6,64.7,30.02,South,173,0.0,0.0,97,0.00,,,0.00,Wunderground v.1.15,2015-05-30 09:14:00,
2015-05-30 04:19:00,65.5,64.6,30.02,South,173,0.0,0.0,97,0.00,,,0.00,Wunderground v.1.15,2015-05-30 09:19:00,
2015-05-30 04:24:00,65.4,64.5,30.02,South,173,0.0,0.0,97,0.00,,,0.00,Wunderground v.1.15,2015-05-30 09:24:00,
2015-05-30 04:29:00,65.3,64.4,30.02,South,173,0.0,0.0,97,0.00,,,0.00,Wunderground v.1.15,2015-05-30 09:29:00,
2015-05-30 04:34:00,65.3,64.4,30.03,South,173,0.0,0.0,97,0.00,,,0.00,Wunderground v.1.15,2015-05-30 09:34:00,
2015-05-30 04:39:00,65.2,64.3,30.03,South,173,0.0,0.0,97,0.00,,,0.00,Wunderground v.1.15,2015-05-30 09:39:00,
2015-05-30 04:44:00,65.2,64.3,30.03,South,173,0.0,0.0,97,0.00,,,0.00,Wunderground v.1.15,2015-05-30 09:44:00,
2015-05-30 04:49:00,65.1,64.2,30.03,South,173,0.0,0.0,97,0.00,,,0.00,Wunderground v.1.15,2015-05-30 09:49:00,
2015-05-30 04:54:00,65.1,64.2,30.03,South,173,0.0,0.0,97,0.00,,,0.00,Wunderground v.1.15,2015-05-30 09:54:00,
2015-05-30 04:59:00,65.0,64.1,30.03,South,173,0.0,0.0,97,0.00,,,0.00,Wunderground v.1.15,2015-05-30 09:59:00,
2015-05-30 05:04:00,65.0,64.1,30.03,South,173,0.0,0.0,97,0.00,,,0.00,Wunderground v.1.15,2015-05-30 10:04:00,
2015-05-30 05:09:00,65.0,64.1,30.03,South,173,0.0,0.0,97,0.00,,,0.00,Wunderground v.1.15,2015-05-30 10:09:00,
2015-05-30 05:14:00,65.0,64.1,30.03,South,173,0.0,0.0,97,0.00,,,0.00,Wunderground v.1.15,2015-05-30 10:14:00,
2015-05-30 05:19:00,65.0,64.1,30.03,South,173,0.0,0.0,97,0.00,,,0.00,Wunderground v.1.15,2015-05-30 10:19:00,
2015-05-30 05:24:00,64.9,64.0,30.04,South,173,0.0,0.0,97,0.00,,,0.00,Wunderground v.1.15,2015-05-30 10:24:00,
2015-05-30 05:29:00,64.8,63.9,30.04,South,173,0.0,0.0,97,0.00,,,0.00,Wunderground v.1.15,2015-05-30 10:29:00,
2015-05-30 05:34:00,64.7,63.8,30.04,South,173,0.0,0.0,97,0.00,,,0.00,Wunderground v.1.15,2015-05-30 10:34:00,
2015-05-30 05:39:00,64.7,63.8,30.04,South,173,0.0,0.0,97,0.00,,,0.00,Wunderground v.1.15,2015-05-30 10:39:00,
2015-05-30 05:44:00,64.7,63.8,30.04,South,173,0.0,0.0,97,0.00,,,0.01,Wunderground v.1.15,2015-05-30 10:44:00,
2015-05-30 05:49:00,64.7,63.8,30.04,South,173,0.0,0.0,97,0.00,,,0.01,Wunderground v.1.15,2015-05-30 10:49:00,
2015-05-30 05:54:00,64.7,64.1,30.04,South,173,0.0,0.0,98,0.00,,,0.01,Wunderground v.1.15,2015-05-30 10:54:00,
2015-05-30 05:59:00,64.7,64.1,30.04,South,173,0.0,0.0,98,0.00,,,0.01,Wunderground v.1.15,2015-05-30 10:59:00,
2015-05-30 06:04:00,64.7,64.1,30.04,South,173,0.0,0.0,98,0.00,,,0.01,Wunderground v.1.15,2015-05-30 11:04:00,
2015-05-30 06:09:00,64.8,64.2,30.04,South,173,0.0,0.0,98,0.00,,,0.01,Wunderground v.1.15,2015-05-30 11:09:00,
2015-05-30 06:14:00,64.8,64.2,30.04,South,173,0.0,0.0,98,0.00,,,0.01,Wunderground v.1.15,2015-05-30 11:14:00,
2015-05-30 06:19:00,64.9,64.3,30.04,South,173,0.0,0.0,98,0.00,,,0.01,Wunderground v.1.15,2015-05-30 11:19:00,
2015-05-30 06:24:00,64.9,64.3,30.04,South,173,0.0,0.0,98,0.00,,,0.01,Wunderground v.1.15,2015-05-30 11:24:00,
2015-05-30 06:29:00,65.0,64.4,30.04,South,173,0.0,0.0,98,0.00,,,0.01,Wunderground v.1.15,2015-05-30 11:29:00,
2015-05-30 06:34:00,65.2,64.6,30.05,South,173,0.0,0.0,98,0.00,,,0.01,Wunderground v.1.15,2015-05-30 11:34:00,
2015-05-30 06:39:00,65.3,64.7,30.05,South,173,0.0,0.0,98,0.00,,,0.01,Wunderground v.1.15,2015-05-30 11:39:00,
2015-05-30 06:44:00,65.4,64.8,30.05,South,173,0.0,0.0,98,0.00,,,0.01,Wunderground v.1.15,2015-05-30 11:44:00,
2015-05-30 06:49:00,65.7,65.1,30.05,South,173,0.0,0.0,98,0.00,,,0.01,Wunderground v.1.15,2015-05-30 11:49:00,
2015-05-30 06:54:00,66.3,65.7,30.05,South,173,0.0,0.0,98,0.00,,,0.01,Wunderground v.1.15,2015-05-30 11:54:00,
2015-05-30 07:00:00,67.5,67.2,30.05,South,171,0.0,0.0,99,0.00,,,0.01,Wunderground v.1.15,2015-05-30 12:00:00,
2015-05-30 07:05:00,68.5,68.2,30.06,South,171,1.0,3.0,99,0.00,,,0.01,Wunderground v.1.15,2015-05-30 12:05:00,
2015-05-30 07:10:00,68.9,68.6,30.05,South,171,0.0,0.0,99,0.00,,,0.01,Wunderground v.1.15,2015-05-30 12:10:00,
2015-05-30 07:15:00,69.3,69.0,30.05,South,170,0.0,5.0,99,0.00,,,0.01,Wunderground v.1.15,2015-05-30 12:15:00,
2015-05-30 07:20:00,69.5,69.2,30.06,South,170,0.0,0.0,99,0.00,,,0.01,Wunderground v.1.15,2015-05-30 12:20:00,
2015-05-30 07:25:00,69.8,69.5,30.06,SSE,165,1.0,1.0,99,0.00,,,0.01,Wunderground v.1.15,2015-05-30 12:25:00,
2015-05-30 07:30:00,70.2,69.9,30.05,SE,146,0.0,0.0,99,0.00,,,0.01,Wunderground v.1.15,2015-05-30 12:30:00,
2015-05-30 07:35:00,70.6,70.0,30.05,SSE,148,1.0,7.0,98,0.00,,,0.01,Wunderground v.1.15,2015-05-30 12:35:00,
2015-05-30 07:40:00,71.0,69.8,30.05,SE,141,0.0,1.0,96,0.00,,,0.01,Wunderground v.1.15,2015-05-30 12:40:00,
2015-05-30 07:45:00,71.5,70.0,30.05,SE,136,0.0,3.0,95,0.00,,,0.01,Wunderground v.1.15,2015-05-30 12:45:00,
2015-05-30 07:50:00,71.9,69.8,30.05,SE,132,0.0,0.0,93,0.00,,,0.01,Wunderground v.1.15,2015-05-30 12:50:00,
2015-05-30 07:55:00,72.3,69.8,30.06,SE,124,0.0,3.0,92,0.00,,,0.01,Wunderground v.1.15,2015-05-30 12:55:00,
2015-05-30 08:00:00,72.7,70.2,30.06,SE,124,0.0,0.0,92,0.00,,,0.01,Wunderground v.1.15,2015-05-30 13:00:00,
2015-05-30 08:05:00,73.3,70.5,30.06,ESE,122,0.0,0.0,91,0.00,,,0.01,Wunderground v.1.15,2015-05-30 13:05:00,
2015-05-30 08:10:00,74.1,71.0,30.06,ESE,119,0.0,0.0,90,0.00,,,0.01,Wunderground v.1.15,2015-05-30 13:10:00,
2015-05-30 08:15:00,74.8,71.0,30.06,ESE,119,0.0,1.0,88,0.00,,,0.01,Wunderground v.1.15,2015-05-30 13:15:00,
2015-05-30 08:20:00,75.2,71.1,30.06,ESE,119,0.0,0.0,87,0.00,,,0.01,Wunderground v.1.15,2015-05-30 13:20:00,
2015-05-30 08:25:00,75.5,71.0,30.06,ESE,119,0.0,0.0,86,0.00,,,0.01,Wunderground v.1.15,2015-05-30 13:25:00,
2015-05-30 08:30:00,75.7,71.2,30.06,ESE,119,0.0,0.0,86,0.00,,,0.01,Wunderground v.1.15,2015-05-30 13:30:00,
2015-05-30 08:35:00,75.9,71.1,30.06,ESE,119,0.0,0.0,85,0.00,,,0.01,Wunderground v.1.15,2015-05-30 13:35:00,
2015-05-30 08:40:00,76.0,70.8,30.06,ESE,119,0.0,0.0,84,0.00,,,0.01,Wunderground v.1.15,2015-05-30 13:40:00,
2015-05-30 08:45:00,76.4,71.2,30.06,ESE,119,0.0,0.0,84,0.00,,,0.01,Wunderground v.1.15,2015-05-30 13:45:00,
2015-05-30 08:50:00,76.9,71.3,30.07,ESE,119,0.0,0.0,83,0.00,,,0.01,Wunderground v.1.15,2015-05-30 13:50:00,
2015-05-30 08:55:00,77.7,71.4,30.07,ESE,117,0.0,1.0,81,0.00,,,0.01,Wunderground v.1.15,2015-05-30 13:55:00,
2015-05-30 09:00:00,78.5,72.2,30.06,ESE,112,3.0,5.0,81,0.00,,,0.01,Wunderground v.1.15,2015-05-30 14:00:00,
2015-05-30 09:05:00,79.0,71.9,30.06,ESE,109,0.0,5.0,79,0.00,,,0.01,Wunderground v.1.15,2015-05-30 14:05:00,
2015-05-30 09:10:00,79.6,72.5,30.07,ESE,107,0.0,0.0,79,0.00,,,0.01,Wunderground v.1.15,2015-05-30 14:10:00,
2015-05-30 09:15:00,80.0,71.8,30.06,East,90,1.0,6.0,76,0.00,,,0.01,Wunderground v.1.15,2015-05-30 14:15:00,
2015-05-30 09:20:00,80.3,72.4,30.06,East,95,0.0,1.0,77,0.00,,,0.01,Wunderground v.1.15,2015-05-30 14:20:00,
2015-05-30 09:25:00,80.5,71.8,30.06,East,95,0.0,3.0,75,0.00,,,0.01,Wunderground v.1.15,2015-05-30 14:25:00,
2015-05-30 09:31:00,80.9,71.8,30.06,East,95,0.0,0.0,74,0.00,,,0.01,Wunderground v.1.15,2015-05-30 14:31:00,
2015-05-30 09:36:00,81.3,72.2,30.06,East,95,0.0,1.0,74,0.00,,,0.01,Wunderground v.1.15,2015-05-30 14:36:00,
2015-05-30 09:41:00,81.9,72.4,30.06,East,96,0.0,0.0,73,0.00,,,0.01,Wunderground v.1.15,2015-05-30 14:41:00,
2015-05-30 09:46:00,82.4,71.2,30.06,ESE,104,0.0,0.0,69,0.00,,,0.01,Wunderground v.1.15,2015-05-30 14:46:00,
2015-05-30 09:51:00,82.8,72.0,30.07,East,90,1.0,1.0,70,0.00,,,0.01,Wunderground v.1.15,2015-05-30 14:51:00,
2015-05-30 09:56:00,83.1,71.9,30.07,ESE,110,0.0,6.0,69,0.00,,,0.01,Wunderground v.1.15,2015-05-30 14:56:00,
2015-05-30 10:01:00,83.3,71.6,30.07,SE,144,0.0,7.0,68,0.00,,,0.01,Wunderground v.1.15,2015-05-30 15:01:00,